{"data":{"norad_id":55812,"epoch":"2026-05-25T04:27:32.193792Z","epoch_age_seconds":54910,"freshness":"FRESH","line1":"1 55812U 23029S   26145.18578928  .00000101  00000+0  21955-3 0  9999","line2":"2 55812  87.9151 309.5591 0001637  86.5088 273.6231 13.19726113155894","mean_motion":13.19726113,"eccentricity":0.0001637,"inclination_deg":87.9151,"raan_deg":309.5591,"arg_perigee_deg":86.5088,"mean_anomaly_deg":273.6231,"bstar":0.00021955,"rev_number":15589,"period_min":109.11354907774,"perigee_km":1184.5280883118,"apogee_km":1187.004510252,"semimajor_km":7563.9032992819,"source":"CELESTRAK","updated_at":"2026-05-25T13:38:22.693579Z"}}